Time,TemperatureF,DewpointF,PressureIn,WindDirection,WindDirectionDegrees,WindSpeedMPH,WindSpeedGustMPH,Humidity,HourlyPrecipIn,Conditions,Clouds,dailyrainin,SoftwareType,DateUTC
2013-07-27 00:03:00,57.4,56.0,30.01,WNW,301,0.0,0.0,95,0.00,,,0.00,weatherlink.com 1.10,2013-07-27 04:03:00,
2013-07-27 00:18:00,57.0,56.0,30.01,WNW,301,0.0,0.0,96,0.00,,,0.00,weatherlink.com 1.10,2013-07-27 04:18:00,
2013-07-27 00:33:00,56.8,56.0,30.01,WNW,302,0.0,0.0,96,0.00,,,0.00,weatherlink.com 1.10,2013-07-27 04:33:00,
2013-07-27 00:48:00,56.4,55.0,30.01,WNW,301,0.0,0.0,96,0.00,,,0.00,weatherlink.com 1.10,2013-07-27 04:48:00,
2013-07-27 01:03:00,55.9,55.0,30.01,WNW,302,0.0,1.0,96,0.00,,,0.00,weatherlink.com 1.10,2013-07-27 05:03:00,
2013-07-27 01:18:00,55.7,55.0,30.01,WNW,302,0.0,0.0,97,0.00,,,0.00,weatherlink.com 1.10,2013-07-27 05:18:00,
2013-07-27 01:33:00,55.5,55.0,30.01,WNW,301,0.0,0.0,97,0.00,,,0.00,weatherlink.com 1.10,2013-07-27 05:33:00,
2013-07-27 01:48:00,55.1,54.0,30.01,WNW,301,0.0,0.0,97,0.00,,,0.00,weatherlink.com 1.10,2013-07-27 05:48:00,
2013-07-27 02:03:00,54.8,54.0,30.01,WNW,302,0.0,0.0,97,0.00,,,0.00,weatherlink.com 1.10,2013-07-27 06:03:00,
2013-07-27 02:18:00,54.1,53.0,30.01,NW,308,0.0,1.0,97,0.00,,,0.00,weatherlink.com 1.10,2013-07-27 06:18:00,
2013-07-27 02:33:00,54.0,54.0,30.01,NW,308,0.0,1.0,98,0.00,,,0.00,weatherlink.com 1.10,2013-07-27 06:33:00,
2013-07-27 02:48:00,54.6,54.0,30.01,NW,308,0.0,1.0,98,0.00,,,0.00,weatherlink.com 1.10,2013-07-27 06:48:00,
2013-07-27 03:03:00,55.5,55.0,30.01,NW,308,0.0,0.0,98,0.00,,,0.00,weatherlink.com 1.10,2013-07-27 07:03:00,
2013-07-27 03:18:00,54.6,54.0,30.00,NW,306,0.0,0.0,97,0.00,,,0.00,weatherlink.com 1.10,2013-07-27 07:18:00,
2013-07-27 03:33:00,54.1,54.0,30.00,NW,306,0.0,0.0,98,0.00,,,0.00,weatherlink.com 1.10,2013-07-27 07:33:00,
2013-07-27 03:48:00,54.4,54.0,30.00,NW,306,0.0,0.0,99,0.00,,,0.00,weatherlink.com 1.10,2013-07-27 07:48:00,
2013-07-27 04:03:00,54.3,54.0,30.01,NW,307,0.0,0.0,98,0.00,,,0.00,weatherlink.com 1.10,2013-07-27 08:03:00,
2013-07-27 04:18:00,53.5,53.0,30.01,NW,307,0.0,0.0,98,0.00,,,0.00,weatherlink.com 1.10,2013-07-27 08:18:00,
2013-07-27 04:33:00,53.5,53.0,30.01,NW,307,0.0,0.0,98,0.00,,,0.00,weatherlink.com 1.10,2013-07-27 08:33:00,
2013-07-27 04:48:00,53.6,53.0,30.01,NW,306,0.0,0.0,99,0.00,,,0.00,weatherlink.com 1.10,2013-07-27 08:48:00,
2013-07-27 05:03:00,53.6,53.0,30.01,NW,306,0.0,0.0,99,0.00,,,0.00,weatherlink.com 1.10,2013-07-27 09:03:00,
2013-07-27 05:18:00,53.8,54.0,30.01,NW,306,0.0,0.0,99,0.00,,,0.00,weatherlink.com 1.10,2013-07-27 09:18:00,
2013-07-27 05:33:00,53.8,54.0,30.02,NW,307,0.0,0.0,99,0.00,,,0.00,weatherlink.com 1.10,2013-07-27 09:33:00,
2013-07-27 05:48:00,53.5,53.0,30.01,NW,306,0.0,0.0,99,0.00,,,0.00,weatherlink.com 1.10,2013-07-27 09:48:00,
2013-07-27 06:03:00,54.0,54.0,30.02,NW,306,0.0,0.0,99,0.00,,,0.00,weatherlink.com 1.10,2013-07-27 10:03:00,
2013-07-27 06:18:00,54.8,55.0,30.02,NW,307,0.0,0.0,99,0.00,,,0.00,weatherlink.com 1.10,2013-07-27 10:18:00,
2013-07-27 06:33:00,56.9,56.0,30.02,NW,307,0.0,0.0,98,0.00,,,0.00,weatherlink.com 1.10,2013-07-27 10:33:00,
2013-07-27 06:48:00,57.2,56.0,30.02,NW,313,0.0,1.0,95,0.00,,,0.00,weatherlink.com 1.10,2013-07-27 10:48:00,
2013-07-27 07:03:00,59.9,58.0,30.02,NW,313,0.0,0.0,93,0.00,,,0.00,weatherlink.com 1.10,2013-07-27 11:03:00,
2013-07-27 07:18:00,62.2,59.0,30.02,SW,223,0.0,0.0,89,0.00,,,0.00,weatherlink.com 1.10,2013-07-27 11:18:00,
2013-07-27 07:34:00,62.7,60.0,30.03,SSW,211,0.0,3.0,89,0.00,,,0.00,weatherlink.com 1.10,2013-07-27 11:34:00,
2013-07-27 07:49:00,64.0,60.0,30.03,SSW,198,2.0,4.0,86,0.00,,,0.00,weatherlink.com 1.10,2013-07-27 11:49:00,
2013-07-27 08:04:00,65.0,61.0,30.03,SSW,210,2.0,3.0,86,0.00,,,0.00,weatherlink.com 1.10,2013-07-27 12:04:00,
2013-07-27 08:19:00,66.3,61.0,30.03,West,259,0.0,3.0,84,0.00,,,0.00,weatherlink.com 1.10,2013-07-27 12:19:00,
2013-07-27 08:34:00,67.7,62.0,30.03,SSW,210,0.0,4.0,82,0.00,,,0.00,weatherlink.com 1.10,2013-07-27 12:34:00,
2013-07-27 08:49:00,67.7,62.0,30.03,West,262,0.0,5.0,81,0.00,,,0.00,weatherlink.com 1.10,2013-07-27 12:49:00,
2013-07-27 09:04:00,68.6,63.0,30.03,SSW,211,0.0,5.0,81,0.00,,,0.00,weatherlink.com 1.10,2013-07-27 13:04:00,
2013-07-27 09:19:00,69.5,62.0,30.03,SW,214,5.0,5.0,77,0.00,,,0.00,weatherlink.com 1.10,2013-07-27 13:19:00,
2013-07-27 09:34:00,70.6,63.0,30.02,WSW,238,1.0,5.0,76,0.00,,,0.00,weatherlink.com 1.10,2013-07-27 13:34:00,
2013-07-27 09:49:00,71.8,62.0,30.02,SW,221,2.0,6.0,72,0.00,,,0.00,weatherlink.com 1.10,2013-07-27 13:49:00,
2013-07-27 10:04:00,72.6,62.0,30.02,WSW,241,1.0,6.0,70,0.00,,,0.00,weatherlink.com 1.10,2013-07-27 14:04:00,
2013-07-27 10:19:00,73.6,62.0,30.02,SW,214,1.0,6.0,66,0.00,,,0.00,weatherlink.com 1.10,2013-07-27 14:19:00,
2013-07-27 10:34:00,74.1,62.0,30.02,SW,219,1.0,7.0,66,0.00,,,0.00,weatherlink.com 1.10,2013-07-27 14:34:00,
2013-07-27 10:49:00,74.7,62.0,30.01,South,191,0.0,7.0,65,0.00,,,0.00,weatherlink.com 1.10,2013-07-27 14:49:00,
2013-07-27 11:04:00,75.9,64.0,30.01,SW,221,0.0,4.0,66,0.00,,,0.00,weatherlink.com 1.10,2013-07-27 15:04:00,
2013-07-27 11:19:00,76.7,63.0,30.01,SW,219,2.0,5.0,63,0.00,,,0.00,weatherlink.com 1.10,2013-07-27 15:19:00,
2013-07-27 11:34:00,76.6,63.0,30.01,SSW,211,0.0,10.0,63,0.00,,,0.00,weatherlink.com 1.10,2013-07-27 15:34:00,
2013-07-27 11:49:00,77.5,63.0,30.00,SE,132,1.0,5.0,62,0.00,,,0.00,weatherlink.com 1.10,2013-07-27 15:49:00,
2013-07-27 12:04:00,78.3,63.0,30.00,SW,229,0.0,4.0,60,0.00,,,0.00,weatherlink.com 1.10,2013-07-27 16:04:00,
2013-07-27 12:19:00,78.4,62.0,29.99,SW,219,2.0,6.0,58,0.00,,,0.00,weatherlink.com 1.10,2013-07-27 16:19:00,
2013-07-27 12:34:00,79.2,63.0,29.99,SW,220,3.0,5.0,58,0.00,,,0.00,weatherlink.com 1.10,2013-07-27 16:34:00,
2013-07-27 12:50:00,80.1,63.0,29.98,SSW,193,3.0,4.0,57,0.00,,,0.00,weatherlink.com 1.10,2013-07-27 16:50:00,
2013-07-27 13:05:00,80.3,62.0,29.98,South,178,1.0,8.0,54,0.00,,,0.00,weatherlink.com 1.10,2013-07-27 17:05:00,
2013-07-27 13:20:00,80.3,63.0,29.98,SSW,197,0.0,5.0,55,0.00,,,0.00,weatherlink.com 1.10,2013-07-27 17:20:00,
2013-07-27 13:35:00,80.9,63.0,29.97,SSW,211,0.0,7.0,54,0.00,,,0.00,weatherlink.com 1.10,2013-07-27 17:35:00,
2013-07-27 13:50:00,81.1,63.0,29.97,WSW,250,0.0,6.0,54,0.00,,,0.00,weatherlink.com 1.10,2013-07-27 17:50:00,
2013-07-27 14:05:00,81.7,62.0,29.97,SW,220,0.0,7.0,52,0.00,,,0.00,weatherlink.com 1.10,2013-07-27 18:05:00,
2013-07-27 14:20:00,81.7,63.0,29.97,SSW,213,2.0,7.0,53,0.00,,,0.00,weatherlink.com 1.10,2013-07-27 18:20:00,
2013-07-27 14:35:00,81.9,62.0,29.96,SSW,210,0.0,10.0,52,0.00,,,0.00,weatherlink.com 1.10,2013-07-27 18:35:00,
2013-07-27 14:50:00,83.1,63.0,29.96,SSW,203,0.0,4.0,51,0.00,,,0.00,weatherlink.com 1.10,2013-07-27 18:50:00,
2013-07-27 15:05:00,83.9,63.0,29.96,SW,221,2.0,5.0,49,0.00,,,0.00,weatherlink.com 1.10,2013-07-27 19:05:00,
2013-07-27 15:20:00,83.6,62.0,29.95,SSW,206,3.0,5.0,48,0.00,,,0.00,weatherlink.com 1.10,2013-07-27 19:20:00,
2013-07-27 15:35:00,83.5,61.0,29.95,SW,216,2.0,6.0,47,0.00,,,0.00,weatherlink.com 1.10,2013-07-27 19:35:00,
2013-07-27 15:50:00,82.8,60.0,29.95,SW,221,0.0,3.0,46,0.00,,,0.00,weatherlink.com 1.10,2013-07-27 19:50:00,
2013-07-27 16:05:00,82.5,60.0,29.95,SW,224,0.0,4.0,46,0.00,,,0.00,weatherlink.com 1.10,2013-07-27 20:05:00,
2013-07-27 16:20:00,83.3,62.0,29.94,North,351,1.0,2.0,49,0.00,,,0.00,weatherlink.com 1.10,2013-07-27 20:20:00,
2013-07-27 16:35:00,82.3,59.0,29.94,SW,225,0.0,5.0,46,0.00,,,0.00,weatherlink.com 1.10,2013-07-27 20:35:00,
2013-07-27 16:50:00,82.8,60.0,29.94,SSW,210,5.0,8.0,46,0.00,,,0.00,weatherlink.com 1.10,2013-07-27 20:50:00,
2013-07-27 17:05:00,83.5,60.0,29.93,SSW,207,0.0,5.0,45,0.00,,,0.00,weatherlink.com 1.10,2013-07-27 21:05:00,
2013-07-27 17:20:00,84.2,61.0,29.92,SW,227,2.0,6.0,45,0.00,,,0.00,weatherlink.com 1.10,2013-07-27 21:20:00,
2013-07-27 17:35:00,83.2,60.0,29.92,SW,232,1.0,4.0,46,0.00,,,0.00,weatherlink.com 1.10,2013-07-27 21:35:00,
2013-07-27 17:50:00,82.8,62.0,29.92,WSW,241,1.0,5.0,49,0.00,,,0.00,weatherlink.com 1.10,2013-07-27 21:50:00,
2013-07-27 18:05:00,82.6,60.0,29.92,WSW,253,0.0,10.0,47,0.00,,,0.00,weatherlink.com 1.10,2013-07-27 22:05:00,
2013-07-27 18:20:00,81.5,62.0,29.92,SW,220,3.0,8.0,51,0.00,,,0.00,weatherlink.com 1.10,2013-07-27 22:20:00,
2013-07-27 18:35:00,80.7,61.0,29.91,SW,223,0.0,4.0,52,0.00,,,0.00,weatherlink.com 1.10,2013-07-27 22:35:00,
2013-07-27 18:50:00,80.2,62.0,29.91,WSW,245,1.0,7.0,54,0.00,,,0.00,weatherlink.com 1.10,2013-07-27 22:50:00,
2013-07-27 19:05:00,79.7,63.0,29.91,SW,226,0.0,6.0,56,0.00,,,0.00,weatherlink.com 1.10,2013-07-27 23:05:00,
2013-07-27 19:20:00,79.5,63.0,29.91,SW,233,0.0,3.0,57,0.00,,,0.00,weatherlink.com 1.10,2013-07-27 23:20:00,
2013-07-27 19:35:00,79.1,63.0,29.91,WSW,249,0.0,1.0,58,0.00,,,0.00,weatherlink.com 1.10,2013-07-27 23:35:00,
2013-07-27 19:50:00,78.7,64.0,29.91,SW,221,0.0,1.0,61,0.00,,,0.00,weatherlink.com 1.10,2013-07-27 23:50:00,
2013-07-27 20:05:00,77.5,65.0,29.91,SW,221,0.0,0.0,65,0.00,,,0.00,weatherlink.com 1.10,2013-07-28 00:05:00,
2013-07-27 20:20:00,75.6,64.0,29.91,SW,221,0.0,0.0,68,0.00,,,0.00,weatherlink.com 1.10,2013-07-28 00:20:00,
2013-07-27 20:35:00,73.5,64.0,29.91,SW,220,0.0,0.0,72,0.00,,,0.00,weatherlink.com 1.10,2013-07-28 00:35:00,
2013-07-27 20:50:00,71.6,64.0,29.91,SW,220,0.0,0.0,76,0.00,,,0.00,weatherlink.com 1.10,2013-07-28 00:50:00,
2013-07-27 21:05:00,69.9,63.0,29.92,SW,224,0.0,0.0,78,0.00,,,0.00,weatherlink.com 1.10,2013-07-28 01:05:00,
2013-07-27 21:20:00,69.7,63.0,29.92,SW,225,0.0,0.0,80,0.00,,,0.00,weatherlink.com 1.10,2013-07-28 01:20:00,
2013-07-27 21:35:00,69.2,63.0,29.92,SW,223,0.0,0.0,80,0.00,,,0.00,weatherlink.com 1.10,2013-07-28 01:35:00,
2013-07-27 21:50:00,68.9,63.0,29.92,SW,223,0.0,0.0,81,0.00,,,0.00,weatherlink.com 1.10,2013-07-28 01:50:00,
2013-07-27 22:05:00,68.3,63.0,29.92,SW,224,0.0,0.0,82,0.00,,,0.00,weatherlink.com 1.10,2013-07-28 02:05:00,
2013-07-27 22:20:00,67.9,63.0,29.92,SW,223,0.0,0.0,83,0.00,,,0.00,weatherlink.com 1.10,2013-07-28 02:20:00,
2013-07-27 22:35:00,67.2,63.0,29.92,SW,223,0.0,0.0,85,0.00,,,0.00,weatherlink.com 1.10,2013-07-28 02:35:00,
2013-07-27 22:50:00,66.7,62.0,29.93,SW,224,0.0,0.0,86,0.00,,,0.00,weatherlink.com 1.10,2013-07-28 02:50:00,
2013-07-27 23:05:00,65.8,62.0,29.92,SW,223,0.0,1.0,87,0.00,,,0.00,weatherlink.com 1.10,2013-07-28 03:05:00,
2013-07-27 23:20:00,65.4,62.0,29.92,SW,224,0.0,0.0,89,0.00,,,0.00,weatherlink.com 1.10,2013-07-28 03:20:00,
2013-07-27 23:35:00,65.8,63.0,29.92,SW,228,0.0,1.0,89,0.00,,,0.00,weatherlink.com 1.10,2013-07-28 03:35:00,
2013-07-27 23:50:00,66.7,63.0,29.92,SW,234,0.0,1.0,88,0.00,,,0.00,weatherlink.com 1.10,2013-07-28 03:50:00,